#timestamp,LO_Frequency,Hit,StdDev 
1600882455.1,286047039.4,P
1600882456.0,286047039.4,P
1600882475.8,286047039.5,P
1600882495.7,286047038.4,Y
1600882515.5,286046999.9,P
1600882535.3,286047000.6,N
1600882555.2,286047000.2,N
1600882575.0,286047000.9,N
1600882575.9,286047000.9,N
1600882595.8,286047000.0,N
1600882615.6,286046999.7,N
1600882635.4,286047000.3,N
1600882655.3,286046999.9,N
1600882675.1,286047002.6,N
1600882695.8,286047001.5,N
1600882715.7,286047004.2,N
1600882735.5,286047003.7,N
1600882755.4,286047003.9,N
1600882775.2,286047004.1,N
1600882795.0,286047004.3,N
1600882795.9,286047004.3,N
1600882815.8,286047003.4,N
1600882835.6,286047003.3,N
1600882855.4,286047003.0,N
1600882875.3,286047007.5,N
1600882895.1,286047008.8,N
1600882915.9,286047008.3,N
1600882935.7,286047010.4,N
1600882955.5,286047010.5,N
1600882975.4,286047010.0,N
1600882995.2,286047007.7,N
1600883015.0,286047010.8,N
1600883015.9,286047010.8,N
1600883035.8,286047010.3,N
1600883055.6,286047008.6,N
1600883075.5,286047010.3,N
1600883095.3,286047010.5,N
1600883115.1,286047010.4,N
1600883135.9,286047007.9,N
1600883155.7,286047008.0,N
1600883175.5,286047008.7,N
1600883195.4,286047009.1,N
1600883215.2,286047008.1,N
1600883235.1,286047010.4,Y
1600883236.0,286047010.4,P
1600883255.8,286047001.4,N
1600883275.6,286047002.1,N
1600883295.5,286047003.1,N
1600883315.3,286047004.0,N
1600883335.2,286047003.1,N
1600883355.9,286047005.4,N
1600883375.7,286047005.6,N
1600883395.6,286047004.9,N
1600883415.4,286047007.1,N
1600883435.2,286047004.5,N
1600883455.1,286047006.5,N
1600883456.0,286047006.5,N
1600883475.8,286047006.9,Y
1600883495.7,286047002.5,P
1600883545.5,286047003.3,E
1600883555.5,286047003.6,N
1600883575.3,286047001.4,P
1600883595.1,286047004.3,P
1600883615.9,286047003.4,N
1600883635.7,286047003.6,Y
1600883655.5,286047000.1,P
1600883675.4,286047004.3,N
1600883695.2,286047004.3,N
1600883715.1,286047003.8,N
1600883716.0,286047003.8,N
1600883735.8,286047004.0,N
1600883755.6,286047002.4,N
1600883775.5,286047002.1,N
1600883795.3,286047002.0,N
1600883815.1,286047003.5,N
1600883835.9,286047005.2,Y
1600883855.7,286047001.8,P
1600883875.6,286046999.7,N
1600883895.4,286047000.0,N
1600883915.2,286047000.7,N
1600883935.1,286046999.8,N
1600883936.0,286046999.8,N
1600883955.8,286047002.4,N
1600883975.7,286047002.6,N
1600883995.5,286047002.6,N
